Temp
63 62 62 62 63 63 63 63 63 63 63 63 63 63 63 62 62 76 88 92 89 79 84 95 95 94 95 92 94 95 86 85 87 87 90 101 98 101 100 97 95 96 96 98 96
62 62 62 62 63 63 62 62 63 63 63 62 62 62 62 62 84 92 88 79 78 79 95 92 90 92 90 92 94 90 88 88 95 96 94 97 98 98 94 93 91 93 94 96 93
62 62 62 62 63 62 62 62 62 63 62 62 62 62 62 68 89 97 80 79 79 82 99 100 97 93 89 94 93 92 85 95 96 98 99 98 98 100 96 92 96 92 91 91 92
61 61 62 62 62 62 62 62 62 62 62 62 62 62 63 84 83 97 80 78 79 98 99 96 94 89 88 88 95 86 93 95 96 99 97 95 100 98 100 100 102 102 97 93 92
61 61 61 61 61 62 62 62 62 61 61 62 62 62 77 88 92 95 80 80 91 97 96 94 91 91 88 92 93 89 93 96 98 98 96 97 95 96 98 105 102 101 96 94 94
61 61 61 61 61 61 61 61 61 61 61 62 63 61 85 81 99 97 96 92 97 95 96 97 95 97 91 91 89 94 94 94 97 96 96 93 95 98 100 103 98 96 95 96 96
60 60 60 60 61 61 61 61 60 61 62 63 64 76 86 89 99 100 98 98 99 99 96 100 99 93 93 89 95 92 87 92 95 97 96 97 90 92 101 100 97 94 95 96 95
60 60 60 60 60 60 60 59 60 61 64 65 64 84 86 98 101 96 100 99 101 101 98 101 100 95 92 95 90 86 89 83 93 92 95 91 83 96 102 98 97 96 95 94 94
60 60 59 59 59 59 58 58 61 64 66 65 79 86 85 89 93 98 100 95 97 97 96 97 96 91 93 84 83 86 79 83 85 92 91 89 85 94 98 98 97 98 94 93 94
59 59 59 59 58 58 58 59 66 65 72 82 85 81 91 86 93 96 100 97 92 93 89 89 90 85 86 84 73 79 82 84 80 88 90 87 87 93 98 98 97 100 95 93 93
59 59 59 58 58 58 64 89 86 84 88 80 82 81 88 93 95 92 95 93 93 89 83 87 81 78 83 86 86 85 82 80 84 90 86 85 86 90 96 98 97 98 95 93 93
60 59 58 58 57 57 71 81 74 75 75 83 82 83 88 89 84 90 95 86 85 81 88 83 76 86 89 86 84 83 79 79 85 89 84 85 84 90 94 95 98 98 96 95 95
60 59 58 57 57 70 79 76 80 79 76 82 86 85 88 88 84 87 91 88 84 81 84 79 85 87 83 82 80 81 78 79 79 86 88 83 80 86 93 96 98 100 99 98 96
59 58 57 54 66 76 80 78 82 79 76 75 82 86 90 90 82 93 93 87 84 80 82 82 88 84 82 80 83 76 86 84 80 79 73 84 70 81 88 91 95 98 100 98 97
59 58 56 55 70 77 76 81 82 78 64 76 81 93 91 84 86 87 94 88 80 81 80 79 80 80 78 81 85 79 87 84 81 78 78 78 74 79 87 85 90 97 100 102 100
57 57 56 65 71 77 80 81 80 70 60 71 79 79 81 84 83 87 87 91 88 81 82 81 89 84 83 86 86 87 82 82 81 79 68 75 75 76 83 86 91 97 98 98 99
56 55 57 71 78 79 80 80 71 66 73 69 72 77 76 77 78 81 79 79 76 70 72 79 82 87 87 80 85 82 77 66 64 65 64 79 76 77 87 90 89 89 91 93 96
55 53 60 73 79 78 80 76 61 66 68 75 74 76 72 76 77 78 77 76 80 77 74 69 67 80 85 81 78 79 77 68 57 62 68 77 68 77 89 92 90 90 91 93 94
53 82 81 83 79 79 77 68 68 67 71 70 74 70 70 74 73 75 75 74 77 78 67 68 69 84 85 86 84 77 72 82 72 73 68 73 78 86 89 90 92 90 90 91 92
69 78 84 81 80 79 75 60 69 73 73 73 66 70 65 69 71 72 72 78 75 80 82 74 64 80 82 87 86 81 85 71 72 58 55 66 70 73 80 84 88 88 88 86 89
73 76 80 84 82 78 71 70 70 75 74 70 68 68 68 67 70 70 70 77 79 78 81 79 72 72 80 77 75 77 75 77 75 70 56 56 65 84 82 85 81 84 82 81 86
74 72 83 85 74 77 75 69 58 73 76 73 73 71 69 69 68 69 68 73 80 79 72 78 72 66 71 82 83 79 70 71 65 61 71 69 69 85 80 81 80 81 78 75 77
71 75 87 82 69 73 70 70 71 71 72 71 70 72 73 69 63 69 71 79 80 77 73 74 69 62 67 77 77 73 72 74 70 70 64 62 69 80 79 79 76 75 75 70 70
70 69 76 80 77 69 67 67 67 73 71 72 72 74 71 69 72 66 70 75 79 78 67 73 69 65 61 66 74 68 71 75 66 59 58 65 66 73 72 71 70 73 70 67 67
73 68 65 70 70 69 67 66 66 66 72 73 71 71 68 64 68 67 72 74 77 74 76 74 62 68 71 73 74 72 71 73 69 69 57 55 67 71 69 66 68 73 73 74 75
66 68 70 71 64 65 58 66 65 68 67 68 67 69 70 65 67 64 69 69 68 74 72 74 62 67 65 72 73 70 73 74 72 71 70 71 69 73 66 68 68 66 69 70 71
71 71 67 58 64 64 68 66 65 65 70 71 69 68 68 71 73 75 76 75 74 69 67 66 65 62 59 70 70 63 70 69 68 68 67 64 63 69 64 66 68 68 70 71 69
MSLP
1019.12 1018.62 1018.07 1017.54 1016.96 1016.38 1015.82 1015.28 1014.85 1014.42 1014.07 1013.71 1013.29 1012.82 1012.44 1012.33 1012.19 1011.37 1008.88 1007.35 1007.59 1008.36 1008.39 1008.11 1008.18 1008.07 1007.93 1007.00 1006.70 1005.71 1003.48 1001.11 1000.38 1000.21 999.99 999.69 999.61 1000.02 1000.47 1000.60 1001.95 1002.51 1002.63 1003.39 1005.33
1019.24 1018.74 1018.22 1017.67 1017.06 1016.41 1015.78 1015.22 1014.67 1014.14 1013.76 1013.38 1013.05 1012.62 1012.02 1011.90 1010.38 1008.38 1006.78 1007.14 1007.45 1007.79 1007.44 1007.32 1007.32 1007.50 1006.95 1006.14 1005.60 1004.75 1002.48 1001.10 1000.75 1000.54 1000.22 1000.09 999.84 999.91 1000.40 1000.56 1001.52 1002.34 1003.48 1004.42 1005.52
1019.13 1018.57 1017.96 1017.31 1016.72 1016.08 1015.53 1015.07 1014.50 1013.85 1013.34 1012.97 1012.67 1012.40 1011.98 1011.53 1009.04 1006.12 1006.91 1007.26 1007.40 1007.45 1006.79 1006.53 1006.62 1006.67 1005.87 1005.32 1004.59 1003.71 1002.57 1001.29 1000.87 1000.78 1000.54 1000.08 999.68 999.66 999.63 999.69 1000.28 1001.41 1003.09 1004.29 1005.07
1019.19 1018.55 1017.89 1017.26 1016.63 1015.94 1015.32 1014.70 1014.06 1013.51 1013.00 1012.55 1012.33 1012.07 1011.76 1010.42 1007.43 1006.47 1007.21 1007.78 1008.06 1007.01 1006.65 1006.39 1006.07 1005.67 1004.96 1004.07 1003.57 1003.41 1002.41 1001.80 1001.23 1000.82 1000.83 1000.36 999.97 999.45 999.13 999.03 999.62 1000.24 1001.97 1003.55 1004.19
1019.10 1018.45 1017.80 1017.12 1016.37 1015.64 1015.01 1014.36 1013.69 1013.14 1012.52 1012.19 1012.03 1011.71 1011.20 1008.72 1006.43 1006.76 1007.33 1007.79 1007.74 1006.98 1006.37 1005.99 1005.65 1005.05 1004.12 1003.37 1003.24 1002.75 1001.92 1001.57 1001.11 1000.79 1000.89 1000.83 1000.14 999.68 999.07 998.80 999.73 1000.34 1001.60 1002.72 1003.52
1019.29 1018.64 1017.85 1017.17 1016.28 1015.46 1014.78 1014.16 1013.38 1012.69 1012.16 1011.80 1011.57 1011.48 1010.06 1007.52 1006.33 1006.56 1006.66 1007.35 1006.82 1006.72 1006.00 1005.53 1004.84 1004.55 1004.16 1003.58 1003.28 1002.45 1002.02 1001.41 1000.93 1000.55 1000.46 1000.33 999.81 999.24 998.84 998.96 999.76 1000.54 1001.25 1002.01 1002.72
1019.16 1018.47 1017.83 1017.08 1016.11 1015.16 1014.41 1013.82 1013.06 1012.14 1011.66 1011.20 1011.07 1010.63 1008.55 1006.37 1006.30 1006.44 1006.58 1006.24 1006.38 1006.08 1005.44 1005.16 1005.01 1004.80 1003.92 1003.31 1002.96 1002.79 1002.02 1001.09 1000.31 999.91 999.59 999.85 999.29 998.68 998.75 999.03 999.58 1000.57 1001.10 1001.61 1002.34
1019.15 1018.50 1017.72 1016.69 1015.63 1014.56 1013.59 1013.05 1012.50 1011.74 1011.26 1010.85 1010.86 1009.70 1006.81 1006.22 1006.30 1006.30 1006.09 1005.90 1005.88 1005.76 1005.62 1005.29 1005.24 1004.66 1004.07 1003.51 1003.19 1002.52 1001.62 1000.44 999.33 999.98 999.83 1000.18 998.41 998.16 997.91 998.70 999.02 999.73 1000.58 1001.23 1002.02
1019.07 1018.30 1017.38 1016.45 1015.51 1014.22 1013.13 1012.30 1011.63 1011.30 1011.09 1010.97 1010.25 1008.60 1006.00 1006.40 1005.88 1005.55 1005.45 1005.12 1005.23 1005.32 1005.36 1005.24 1004.96 1004.13 1003.53 1003.25 1002.19 1001.35 1000.67 999.67 999.34 1000.02 999.86 999.66 998.64 998.69 998.68 998.50 998.46 998.73 999.86 1000.61 1001.39
1018.81 1018.07 1017.33 1016.50 1015.51 1014.24 1013.04 1011.60 1011.04 1011.08 1010.78 1009.96 1009.16 1008.08 1005.95 1005.87 1005.63 1005.49 1005.33 1005.41 1005.08 1004.74 1004.87 1004.87 1004.19 1003.35 1002.83 1002.11 1000.59 999.98 999.41 999.19 999.80 999.67 999.54 999.21 998.61 998.34 998.06 997.81 997.71 997.66 998.81 999.87 1000.40
1018.63 1018.04 1017.39 1016.66 1015.59 1014.41 1012.96 1009.98 1010.51 1009.79 1008.68 1008.65 1008.03 1007.19 1006.14 1006.04 1005.48 1005.08 1004.99 1004.82 1004.69 1004.43 1003.62 1003.69 1003.14 1001.99 1001.59 1001.30 1001.18 1000.50 1000.04 999.84 999.63 999.77 999.69 998.98 998.33 998.16 997.49 997.19 996.85 997.09 997.91 999.01 999.86
1018.64 1018.13 1017.37 1016.52 1015.19 1013.85 1012.75 1011.09 1012.59 1012.67 1009.80 1008.26 1007.84 1007.29 1006.69 1006.48 1005.20 1004.63 1004.98 1004.46 1004.05 1003.21 1002.66 1002.82 1002.11 1001.58 1001.29 1001.39 1001.05 1000.61 1000.19 999.85 999.41 999.42 999.80 998.79 998.01 997.72 997.19 996.85 996.44 996.46 997.05 998.10 999.03
1018.58 1017.97 1017.12 1015.95 1014.74 1013.40 1012.57 1012.68 1012.99 1012.57 1010.08 1007.72 1007.03 1006.44 1005.86 1006.08 1004.87 1004.23 1004.47 1003.94 1003.36 1002.61 1002.04 1001.69 1000.85 1000.92 1001.38 1001.23 1000.75 1000.19 999.95 999.57 999.22 998.97 998.88 998.67 997.76 996.83 996.51 996.27 995.96 995.86 996.34 997.13 998.01
1018.18 1017.61 1017.15 1016.13 1014.70 1013.75 1012.62 1013.17 1012.92 1012.59 1009.14 1007.41 1006.15 1005.83 1005.42 1005.07 1004.49 1004.31 1004.29 1004.10 1003.07 1002.48 1001.92 1001.25 1000.79 1000.51 1000.57 1000.39 1000.31 999.32 999.43 999.25 999.43 998.98 998.00 997.98 997.08 996.71 996.47 995.73 995.50 995.15 995.44 996.30 997.16
1017.97 1017.52 1017.19 1017.21 1015.32 1013.37 1013.26 1013.02 1012.60 1012.01 1008.07 1007.46 1005.94 1005.90 1005.12 1004.86 1004.30 1003.81 1004.17 1003.72 1002.92 1002.41 1002.66 1000.87 1000.78 1000.57 1000.23 999.76 999.62 999.09 999.19 999.04 999.17 998.81 998.30 997.73 997.24 996.20 995.99 995.41 995.00 994.56 994.69 995.10 995.88
1017.76 1017.33 1016.93 1015.85 1015.08 1013.62 1013.34 1012.78 1012.16 1009.84 1007.52 1006.94 1006.31 1005.52 1004.63 1004.38 1004.26 1003.87 1003.54 1003.58 1003.23 1002.60 1001.99 1001.40 1001.01 1000.86 999.95 999.59 999.39 999.48 999.21 999.18 999.22 998.70 997.40 997.15 996.86 995.74 995.15 994.81 994.52 994.47 994.60 995.28 995.89
1017.42 1016.84 1016.54 1015.24 1013.48 1013.58 1013.15 1011.63 1009.67 1007.85 1008.17 1007.15 1006.39 1005.86 1005.28 1004.57 1004.15 1003.93 1003.38 1002.90 1002.94 1002.32 1001.50 1001.03 999.74 999.66 999.93 999.47 999.23 999.43 999.01 998.35 998.07 997.51 996.58 996.67 995.77 995.31 995.00 995.10 995.87 995.91 995.98 996.27 996.31
1016.88 1016.34 1015.66 1014.61 1013.96 1013.57 1012.39 1010.25 1008.44 1008.34 1007.65 1007.53 1006.84 1005.92 1005.33 1005.20 1004.46 1004.19 1003.55 1002.90 1003.24 1003.12 1002.07 1000.92 1000.08 999.63 999.68 999.47 998.96 998.42 998.69 997.73 996.91 996.45 996.02 995.72 995.69 995.44 995.56 995.70 996.33 996.41 996.59 996.48 996.31
1016.28 1014.38 1013.71 1013.42 1013.85 1013.29 1011.35 1008.88 1008.13 1008.32 1008.34 1007.69 1006.76 1006.00 1005.66 1005.49 1005.45 1004.48 1003.88 1003.71 1003.97 1003.90 1003.55 1002.03 1000.88 1000.33 999.47 999.38 999.09 998.20 998.23 998.24 997.55 997.20 996.69 995.98 995.61 995.31 995.94 995.54 995.51 996.42 996.77 996.66 996.58
1016.20 1014.01 1012.89 1013.39 1013.39 1012.34 1010.31 1009.36 1008.93 1009.04 1008.76 1008.22 1007.07 1006.98 1006.12 1005.91 1005.35 1004.87 1004.37 1004.38 1004.44 1004.38 1004.20 1003.13 1002.10 1000.57 999.71 999.13 998.12 998.37 998.09 997.88 997.91 997.40 996.87 996.36 995.61 994.97 995.45 996.00 996.17 996.94 997.25 997.62 997.18
1015.82 1013.17 1012.87 1012.89 1012.81 1011.01 1009.19 1009.38 1009.50 1009.26 1009.16 1008.46 1007.82 1007.40 1007.11 1006.68 1006.21 1005.48 1005.00 1004.89 1005.09 1004.79 1004.50 1003.57 1002.70 1001.36 1000.35 998.87 998.67 998.47 998.36 998.34 997.89 998.04 998.22 997.06 996.05 995.30 995.73 996.42 997.46 997.96 998.67 998.81 998.18
1015.24 1012.51 1012.69 1012.58 1011.23 1010.60 1009.68 1010.26 1010.91 1009.38 1009.16 1008.74 1008.56 1008.07 1007.62 1007.33 1006.67 1006.09 1005.61 1005.43 1005.81 1005.67 1004.94 1004.35 1003.73 1001.95 1000.79 999.89 999.79 999.57 999.83 1000.13 998.69 998.52 997.86 997.19 996.02 996.29 997.37 998.28 998.94 999.29 1000.02 1000.16 1000.22
1014.90 1013.15 1012.45 1012.18 1010.34 1009.98 1010.56 1010.26 1010.21 1009.48 1009.20 1008.80 1008.37 1008.44 1008.26 1007.77 1007.46 1006.66 1006.35 1006.26 1006.32 1006.10 1005.75 1005.76 1004.02 1002.66 1000.69 999.41 999.83 999.63 1000.45 1000.73 1001.14 1000.64 998.91 998.07 996.70 997.75 999.02 999.37 1000.53 1000.87 1001.22 1001.39 1001.62
1015.56 1012.84 1012.04 1011.88 1011.82 1011.12 1010.65 1010.16 1009.89 1010.02 1009.64 1009.47 1008.85 1008.66 1008.37 1007.88 1007.56 1007.27 1006.82 1006.56 1006.60 1006.51 1006.61 1006.21 1004.96 1003.86 1002.35 1000.83 1000.31 1000.30 1000.71 1000.56 1001.70 1001.23 999.46 998.65 998.13 999.12 1000.43 1001.20 1001.85 1002.13 1002.62 1002.65 1002.70
1015.74 1014.00 1014.15 1011.82 1011.78 1011.73 1011.56 1011.06 1010.15 1009.74 1009.95 1009.69 1008.87 1008.80 1008.72 1008.26 1007.59 1007.13 1006.74 1006.49 1006.56 1006.44 1006.23 1005.94 1005.20 1004.29 1002.96 1002.00 1001.32 1000.79 1000.63 1000.68 1000.68 1000.90 1001.48 1001.93 999.31 999.90 1001.79 1002.80 1003.00 1002.85 1003.05 1002.90 1002.80
1015.93 1014.85 1014.48 1013.23 1013.05 1012.42 1012.12 1011.00 1010.66 1010.27 1010.45 1009.36 1009.41 1009.08 1009.04 1008.60 1008.15 1007.61 1007.32 1007.02 1006.77 1006.54 1006.31 1006.15 1005.47 1004.55 1003.38 1002.36 1001.27 1000.41 1000.56 1000.54 1000.89 1001.46 1001.93 1001.72 1001.52 1002.18 1003.46 1003.82 1003.82 1004.08 1003.77 1003.89 1004.01
1016.97 1016.44 1015.32 1013.54 1012.71 1012.31 1011.23 1011.31 1011.19 1011.59 1010.64 1010.48 1010.17 1009.93 1009.16 1008.69 1008.87 1008.50 1007.94 1007.21 1006.75 1006.52 1006.38 1006.39 1005.68 1004.72 1003.08 1002.10 1001.17 1000.57 1000.26 1000.73 1001.67 1002.61 1002.81 1002.75 1004.13 1003.83 1004.32 1004.36 1004.50 1004.46 1004.45 1004.58 1005.00
Wind_Speed
19 20 19 19 20 20 20 20 19 19 18 17 16 15 13 9 2 7 10 2 4 19 12 15 11 9 11 7 10 7 8 8 4 6 9 12 16 6 4 5 8 6 2 9 22
19 19 18 19 18 19 20 20 19 19 18 16 15 15 15 11 9 13 4 10 20 17 19 17 13 12 9 9 6 11 10 13 7 9 11 12 13 8 4 6 9 9 7 16 22
19 19 20 21 21 21 21 20 20 20 18 17 15 14 14 13 11 5 4 13 22 19 14 11 10 13 11 8 10 10 15 16 12 10 13 14 14 3 6 7 10 13 14 20 20
19 20 21 22 22 22 22 22 22 20 19 18 15 13 12 7 6 7 7 11 13 16 12 13 13 13 10 10 9 14 19 17 19 12 15 14 16 14 11 12 5 10 19 22 23
20 21 22 23 24 24 24 24 23 21 20 16 13 10 8 8 9 7 9 12 19 9 14 12 11 11 13 9 8 15 19 17 15 14 12 15 17 18 18 15 3 8 20 23 21
19 20 22 23 24 25 24 24 23 22 19 15 8 6 9 11 6 5 9 16 11 12 12 13 10 9 13 14 13 15 13 16 15 14 15 16 19 12 16 5 5 12 18 20 22
20 21 22 23 24 25 24 23 22 23 19 11 5 6 8 10 3 7 9 7 5 11 12 11 10 11 3 12 9 12 15 15 16 18 17 14 16 18 18 2 5 9 12 16 20
19 20 21 24 26 28 29 24 22 18 9 2 7 6 6 2 4 6 11 13 8 10 13 13 10 15 11 11 12 13 11 13 8 3 9 7 15 13 5 5 8 9 11 15 20
18 21 22 25 27 30 31 29 22 6 2 7 7 6 0 4 5 2 5 7 5 4 6 5 11 15 12 15 15 14 15 18 8 3 8 8 13 11 5 12 16 10 13 15 18
19 22 23 25 28 30 31 27 4 5 7 7 5 6 3 7 9 10 10 10 8 6 6 10 10 12 15 15 16 18 17 12 11 6 10 15 18 14 15 15 16 12 13 16 20
19 22 24 24 27 28 19 5 5 7 1 6 8 5 4 14 1 2 3 9 10 11 13 13 13 17 21 18 22 21 18 17 13 16 11 18 13 15 16 12 12 9 10 15 18
20 21 23 24 27 28 12 6 6 6 6 1 4 7 6 6 5 4 4 6 10 15 13 10 16 18 17 17 19 20 19 20 18 15 9 14 18 15 15 12 10 9 11 14 17
20 20 22 24 29 11 7 7 6 5 7 2 2 4 7 5 6 3 4 2 8 10 13 18 19 4 12 18 21 20 21 20 20 16 14 17 18 18 8 11 7 9 7 12 17
19 20 19 25 10 7 1 2 9 5 6 5 2 4 6 6 4 0 2 5 5 10 10 11 12 16 18 21 19 23 20 18 20 19 15 6 13 14 13 10 13 9 10 13 16
19 19 17 9 10 4 6 8 7 6 6 5 3 4 10 6 9 7 4 5 8 10 6 14 6 11 16 20 19 22 20 19 15 18 18 20 12 11 10 13 13 12 10 9 14
20 19 17 5 5 6 8 9 5 8 3 1 3 6 7 2 1 6 2 5 2 7 7 13 13 13 18 16 17 17 15 18 14 15 17 17 19 12 12 9 7 8 4 8 9
21 21 11 3 5 7 8 5 7 5 4 3 4 7 3 6 1 7 5 7 8 10 9 13 11 12 12 17 13 14 15 13 15 15 15 18 20 9 9 3 7 7 7 9 10
25 21 6 5 7 7 4 7 5 3 2 1 4 3 3 8 2 7 6 4 9 14 13 9 11 7 9 12 18 16 18 14 18 14 15 9 11 11 9 0 3 4 7 8 9
27 2 3 4 2 4 7 7 4 1 2 5 4 1 2 3 5 6 4 5 7 11 12 11 10 20 8 11 12 15 10 17 20 18 14 14 12 10 9 15 7 8 8 11 12
8 4 1 4 5 6 7 4 1 2 3 3 3 4 4 6 6 6 3 7 8 11 14 7 13 15 10 14 13 14 12 14 12 18 18 14 16 11 10 15 11 13 11 13 13
5 5 6 6 4 7 5 3 2 2 3 3 1 2 2 5 7 7 4 6 13 13 15 14 9 12 16 9 15 10 10 14 17 10 9 15 12 10 8 10 10 12 11 12 13
5 5 4 4 6 2 2 2 1 1 2 2 4 4 4 4 7 6 5 7 14 12 19 10 9 12 17 18 6 3 2 14 11 11 12 15 15 7 4 2 5 7 9 9 11
6 4 2 4 5 3 3 2 3 3 1 2 3 3 1 6 6 4 7 10 11 16 11 12 9 13 15 10 3 1 8 10 11 19 18 15 15 8 4 3 7 9 8 9 7
5 4 4 2 1 6 3 2 4 2 5 3 6 6 6 9 6 7 13 8 13 16 7 7 12 14 14 20 16 12 11 10 2 9 15 19 18 7 7 8 7 6 10 10 9
2 4 4 1 3 3 4 2 5 4 4 4 6 7 6 10 11 14 11 14 14 9 9 9 13 15 19 17 18 18 16 16 11 14 8 18 28 10 6 6 5 4 4 7 10
5 4 4 1 3 6 4 4 7 4 5 5 9 4 8 9 12 15 16 16 19 16 13 14 12 15 18 20 21 18 16 15 13 10 12 13 19 5 8 2 6 10 9 9 8
1 1 5 5 5 6 4 4 3 2 6 9 7 9 11 10 11 17 19 20 20 19 17 14 11 11 15 16 16 14 10 4 5 7 9 10 17 1 4 5 8 9 9 9 11
Wind_Direction
358 353 348 344 340 336 332 330 330 328 327 324 324 321 318 322 281 194 256 184 150 168 165 154 174 177 191 230 244 251 262 270 325 328 348 357 349 48 343 211 205 194 62 114 141
354 349 344 339 335 331 328 327 326 325 323 320 318 314 312 323 261 266 130 146 146 178 166 171 175 177 205 241 222 244 269 292 338 317 320 321 330 346 274 188 212 177 118 135 152
350 347 342 340 336 332 328 327 324 322 319 314 315 313 308 307 274 135 93 156 160 186 176 192 174 195 234 235 235 256 261 300 294 293 311 310 309 342 281 263 221 206 168 161 164
347 343 340 337 333 329 328 326 323 321 316 312 315 311 307 247 296 85 117 164 179 187 181 183 183 202 232 228 230 254 266 268 286 306 301 300 316 300 305 296 10 200 164 174 173
343 340 337 334 330 327 327 324 321 318 312 312 311 302 271 234 255 87 121 155 178 201 195 200 209 240 256 271 252 253 268 275 278 282 276 295 282 289 291 294 141 165 165 182 181
334 333 332 328 326 323 323 321 319 313 310 312 300 279 239 256 71 114 124 155 189 210 216 229 228 257 278 274 270 290 294 283 274 269 269 266 283 286 270 337 167 179 185 186 185
331 330 327 324 323 319 320 321 316 311 309 298 227 237 244 258 74 127 172 180 193 242 251 236 254 244 272 260 268 272 268 272 268 269 272 283 263 256 258 199 250 216 211 194 190
326 325 326 329 329 323 323 324 315 308 305 118 183 235 263 127 312 240 234 246 234 242 253 266 253 250 261 274 261 257 258 275 267 295 289 269 282 277 270 249 282 227 222 205 194
327 329 334 333 327 322 322 319 311 281 173 152 221 258 135 153 236 118 206 201 308 202 211 230 221 231 231 243 255 228 264 275 250 295 292 255 300 298 262 272 276 261 210 211 197
332 334 333 329 325 320 320 301 262 236 201 238 258 232 172 345 317 293 254 246 266 185 177 211 216 223 222 239 247 255 257 238 268 253 283 285 280 282 281 269 271 262 203 211 206
332 332 329 325 318 317 318 234 237 175 86 350 335 310 350 336 210 183 256 199 221 235 247 194 232 232 250 241 262 277 283 277 275 275 262 281 276 274 274 273 255 246 202 216 214
333 327 322 321 318 317 281 44 49 341 300 140 292 277 271 316 283 115 194 215 209 239 236 227 242 257 265 266 259 260 259 260 266 267 251 277 290 298 279 267 272 263 212 213 197
331 324 326 325 319 305 11 66 352 301 256 121 327 310 358 293 330 19 262 316 249 253 247 249 268 271 262 248 248 247 253 261 262 266 261 265 272 264 239 268 276 251 229 203 200
331 325 332 333 295 347 93 13 315 252 250 75 113 97 306 311 223 151 295 295 235 293 309 278 289 271 247 250 253 258 251 242 261 263 263 228 283 287 279 274 270 252 206 203 199
323 324 323 332 315 283 23 317 310 229 245 54 25 333 305 299 338 111 355 224 290 303 269 285 299 278 256 261 262 261 266 258 254 262 265 253 248 267 242 258 253 243 210 213 195
318 320 328 186 223 297 310 309 234 229 134 131 318 343 322 190 97 308 286 202 292 283 249 267 287 254 265 279 268 269 265 258 245 254 250 242 258 257 257 240 249 256 302 354 335
319 320 304 295 356 327 307 233 241 276 151 34 338 331 293 340 234 0 342 44 10 336 348 311 292 237 267 262 254 255 235 237 228 228 248 248 246 249 270 238 343 341 344 332 308
320 317 161 290 308 307 252 238 253 57 30 24 319 280 22 356 45 343 314 310 51 357 314 350 324 5 347 286 281 243 249 257 260 251 259 168 232 248 219 30 142 359 342 324 331
311 242 239 40 350 285 260 245 36 65 354 334 227 304 76 53 302 315 346 350 31 21 358 309 317 316 348 331 273 269 246 263 272 268 268 276 256 221 249 259 261 326 323 337 330
312 283 71 349 302 264 254 10 148 4 317 255 337 331 343 10 322 342 313 67 356 8 342 321 297 300 331 296 247 251 264 236 233 262 266 254 253 247 247 274 289 302 336 345 338
256 260 72 328 274 238 281 47 175 104 293 274 317 281 332 336 327 333 349 330 22 344 333 329 291 306 295 318 332 307 260 276 261 269 284 283 266 267 304 298 312 307 358 350 337
294 253 44 296 243 273 202 5 12 248 184 227 277 285 290 322 309 307 310 326 359 332 325 347 298 295 309 292 327 299 22 317 326 292 283 277 270 75 69 309 327 342 6 4 2
316 308 111 286 269 183 138 218 271 263 289 256 254 250 288 295 297 287 319 321 332 332 331 329 302 307 277 237 257 104 345 350 316 297 279 268 274 68 49 37 14 25 21 40 18
285 265 149 205 324 307 269 217 232 203 275 281 294 259 269 274 263 282 301 305 321 312 3 258 266 275 286 307 320 313 308 308 314 275 295 302 345 103 32 8 5 27 58 70 66
297 65 5 336 142 293 271 318 253 243 218 248 223 247 293 286 288 282 294 312 311 318 298 299 283 284 283 286 286 284 289 294 279 253 268 305 292 35 44 350 47 43 93 72 63
306 304 178 264 261 259 162 219 266 237 262 231 257 323 285 278 290 304 310 305 308 302 300 305 287 288 288 272 268 276 285 289 280 293 259 285 293 58 69 276 69 28 33 40 25
99 213 279 131 203 244 249 281 296 300 237 273 296 301 281 319 332 304 291 282 280 283 280 282 277 292 284 292 284 277 287 329 287 265 309 316 349 115 130 160 68 73 71 63 50